Simultaneous Nadir Overpasses (SNOs) Predictions

Prediction of SNOs between AURA and NPP Satellite Orbit:

Table of predicted SNOs for the next 14.0 days since TLE Epoch: 7/18/2015
Index Date (AURA) Time (AURA) Lat,Lon (AURA) SZA (AURA ) Date (NPP) Time (NPP) Lat,Lon (NPP) SZA (NPP ) Distance(km) Time Diff (sec)
1 07/20/2015 00:24:32 78.22, 63.37 74.07 07/20/2015 00:23:23 78.21, 63.27 74.14 2.36 69
2 07/20/2015 01:13:45 -78.82,-125.86 106.74 07/20/2015 01:13:53 -78.82,-125.81 106.76 1.17 8
3 07/22/2015 16:40:52 78.46,-179.56 74.26 07/22/2015 16:40:10 78.45,-179.63 74.31 1.75 42
4 07/22/2015 17:30:07 -78.97, -9.12 106.44 07/22/2015 17:30:42 -78.97, -9.05 106.48 1.74 35
5 07/25/2015 08:57:12 78.68, -62.50 74.51 07/25/2015 08:56:57 78.68, -62.48 74.52 0.69 15
6 07/25/2015 09:46:32 -78.98, 106.83 105.90 07/25/2015 09:47:35 -78.97, 106.73 105.93 2.21 63
7 07/28/2015 00:24:20 -78.27,-116.36 104.37 07/28/2015 00:23:16 -78.26,-116.48 104.30 2.78 64
8 07/28/2015 01:13:34 78.76, 53.82 74.99 07/28/2015 01:13:47 78.76, 53.76 74.99 1.36 13
9 07/30/2015 16:40:36 -78.64, 1.40 104.24 07/30/2015 16:39:59 -78.64, 1.52 104.24 2.81 37




NCC Satellite Simultaneous Nadir Overpasses (SNOs) Prediction Service
